• In France
  • List of Countries
  • For 7 days
  • Water Temperature
  • Satellite Maps
  • Weather Map
  • Weather Widgets
  • user-avatar
    Login

    Hourly Weather Kecskemet

    Today, 20 November, Monday

    Time Temperature Precipitation Wind Pressure Humidity
    00:00 +1°C° 0 mm 4 mps 750 mmHg 76%
    01:00 +1°C° 0 mm 3 mps 750 mmHg 78%
    02:00 0°C° 0 mm 4 mps 750 mmHg 77%
    03:00 0°C° 0 mm 4 mps 750 mmHg 77%
    04:00 0°C° 0 mm 5 mps 750 mmHg 76%
    05:00 +1°C° 0 mm 5 mps 751 mmHg 75%
    06:00 +1°C° 0 mm 5 mps 751 mmHg 75%
    07:00 +1°C° 0 mm 6 mps 751 mmHg 76%
    08:00 +2°C° 0 mm 7 mps 751 mmHg 71%
    09:00 +3°C° 0 mm 7 mps 752 mmHg 65%
    10:00 +5°C° 0 mm 8 mps 752 mmHg 59%
    11:00 +5°C° 0 mm 8 mps 752 mmHg 56%
    12:00 +5°C° 0 mm 8 mps 752 mmHg 54%
    13:00 +6°C° 0 mm 7 mps 752 mmHg 51%
    14:00 +5°C° 0 mm 6 mps 752 mmHg 54%
    15:00 +6°C° 0 mm 5 mps 752 mmHg 58%
    16:00 +5°C° 0 mm 4 mps 752 mmHg 61%
    17:00 +4°C° 0 mm 4 mps 752 mmHg 63%
    18:00 +4°C° 0 mm 4 mps 752 mmHg 66%
    19:00 +3°C° 0 mm 4 mps 752 mmHg 69%
    20:00 +3°C° 0 mm 4 mps 753 mmHg 69%
    21:00 +3°C° 0 mm 4 mps 753 mmHg 70%
    22:00 +3°C° 0 mm 4 mps 753 mmHg 70%
    23:00 +3°C° 0 mm 4 mps 753 mmHg 70%

    Tomorrow, 21 November, Tuesday

    Time Temperature Precipitation Wind Pressure Humidity
    00:00 +3°C° 0 mm 4 mps 753 mmHg 70%
    01:00 +3°C° 0 mm 3 mps 753 mmHg 71%
    02:00 +3°C° 0 mm 3 mps 752 mmHg 71%
    03:00 +3°C° 0 mm 3 mps 752 mmHg 72%
    04:00 +4°C° 0 mm 2 mps 752 mmHg 73%
    05:00 +3°C° 0.1 mm 3 mps 752 mmHg 72%
    06:00 +3°C° 0.1 mm 3 mps 751 mmHg 71%
    07:00 +3°C° 0.1 mm 3 mps 751 mmHg 70%
    08:00 +3°C° 0.2 mm 3 mps 751 mmHg 69%
    09:00 +4°C° 0.2 mm 4 mps 751 mmHg 67%
    10:00 +4°C° 0.2 mm 4 mps 752 mmHg 66%
    11:00 +4°C° 0.2 mm 4 mps 751 mmHg 68%
    12:00 +5°C° 0.2 mm 4 mps 751 mmHg 70%
    13:00 +5°C° 0.2 mm 4 mps 750 mmHg 71%
    14:00 +5°C° 0.5 mm 3 mps 750 mmHg 75%
    15:00 +5°C° 0.5 mm 3 mps 750 mmHg 79%
    16:00 +4°C° 0.5 mm 3 mps 750 mmHg 83%
    17:00 +5°C° 0.2 mm 3 mps 751 mmHg 83%
    18:00 +5°C° 0.2 mm 4 mps 751 mmHg 82%
    19:00 +5°C° 0.2 mm 4 mps 751 mmHg 82%
    20:00 +5°C° 0 mm 4 mps 751 mmHg 83%
    21:00 +5°C° 0 mm 4 mps 751 mmHg 83%
    22:00 +5°C° 0 mm 4 mps 751 mmHg 83%
    23:00 +6°C° 0 mm 4 mps 751 mmHg 83%

    Day after tomorrow, 22 November, Wednesday

    Time Temperature Precipitation Wind Pressure Humidity
    00:00 +6°C° 0 mm 4 mps 751 mmHg 82%
    01:00 +6°C° 0 mm 4 mps 751 mmHg 82%
    02:00 +6°C° 0.1 mm 4 mps 751 mmHg 83%
    03:00 +7°C° 0.1 mm 3 mps 751 mmHg 84%
    04:00 +7°C° 0.1 mm 3 mps 751 mmHg 85%
    05:00 +7°C° 0 mm 3 mps 752 mmHg 86%
    06:00 +5°C° 0 mm 3 mps 752 mmHg 87%
    07:00 +5°C° 0 mm 3 mps 752 mmHg 87%
    08:00 +7°C° 0 mm 3 mps 752 mmHg 82%
    09:00 +8°C° 0 mm 3 mps 752 mmHg 77%
    10:00 +8°C° 0 mm 4 mps 753 mmHg 72%
    11:00 +10°C° 0 mm 3 mps 753 mmHg 68%
    12:00 +11°C° 0 mm 3 mps 752 mmHg 65%
    13:00 +12°C° 0 mm 3 mps 752 mmHg 62%
    14:00 +11°C° 0 mm 3 mps 752 mmHg 66%
    15:00 +12°C° 0 mm 2 mps 752 mmHg 71%
    16:00 +10°C° 0 mm 2 mps 752 mmHg 76%
    17:00 +9°C° 0 mm 2 mps 752 mmHg 79%
    18:00 +9°C° 0 mm 2 mps 752 mmHg 82%
    19:00 +8°C° 0 mm 3 mps 752 mmHg 85%
    20:00 +8°C° 0 mm 3 mps 752 mmHg 86%
    21:00 +8°C° 0 mm 3 mps 752 mmHg 88%
    22:00 +7°C° 0 mm 3 mps 752 mmHg 89%
    23:00 +7°C° 0 mm 3 mps 752 mmHg 90%

    23 November, Thursday

    Time Temperature Precipitation Wind Pressure Humidity
    00:00 +7°C° 0 mm 2 mps 752 mmHg 90%
    01:00 +7°C° 0 mm 2 mps 752 mmHg 91%
    02:00 +6°C° 0 mm 2 mps 752 mmHg 91%
    03:00 +6°C° 0 mm 2 mps 752 mmHg 92%
    04:00 +6°C° 0 mm 2 mps 752 mmHg 92%
    05:00 +6°C° 0 mm 2 mps 753 mmHg 92%
    06:00 +6°C° 0 mm 2 mps 753 mmHg 92%
    07:00 +5°C° 0 mm 2 mps 753 mmHg 92%
    08:00 +7°C° 0 mm 2 mps 753 mmHg 87%
    09:00 +8°C° 0 mm 3 mps 754 mmHg 82%
    10:00 +10°C° 0 mm 3 mps 754 mmHg 77%
    11:00 +11°C° 0 mm 3 mps 754 mmHg 74%
    12:00 +12°C° 0 mm 3 mps 754 mmHg 70%
    13:00 +13°C° 0 mm 3 mps 755 mmHg 66%
    14:00 +13°C° 0 mm 2 mps 755 mmHg 70%
    15:00 +12°C° 0 mm 2 mps 755 mmHg 73%
    16:00 +11°C° 0 mm 1 mps 755 mmHg 76%
    17:00 +11°C° 0 mm 1 mps 755 mmHg 77%
    18:00 +10°C° 0 mm 2 mps 756 mmHg 78%
    19:00 +10°C° 0 mm 2 mps 756 mmHg 79%
    20:00 +9°C° 0 mm 2 mps 756 mmHg 80%
    21:00 +9°C° 0 mm 2 mps 756 mmHg 81%
    22:00 +9°C° 0 mm 2 mps 757 mmHg 81%
    23:00 +9°C° 0 mm 1 mps 757 mmHg 82%

    24 November, Friday

    Time Temperature Precipitation Wind Pressure Humidity
    00:00 +9°C° 0 mm 1 mps 757 mmHg 84%
    01:00 +9°C° 0 mm 1 mps 757 mmHg 85%
    02:00 +8°C° 0 mm 1 mps 757 mmHg 86%
    03:00 +8°C° 0 mm 1 mps 757 mmHg 88%
    04:00 +7°C° 0 mm 1 mps 757 mmHg 90%
    05:00 +7°C° 0 mm 1 mps 757 mmHg 90%
    06:00 +7°C° 0 mm 1 mps 757 mmHg 91%
    07:00 +7°C° 0 mm 1 mps 757 mmHg 92%
    08:00 +8°C° 0 mm 1 mps 758 mmHg 88%
    09:00 +9°C° 0 mm 1 mps 758 mmHg 84%
    10:00 +10°C° 0 mm 1 mps 758 mmHg 80%
    11:00 +11°C° 0 mm 1 mps 758 mmHg 76%
    12:00 +12°C° 0 mm 1 mps 758 mmHg 73%
    13:00 +13°C° 0 mm 1 mps 758 mmHg 70%
    14:00 +12°C° 0 mm 1 mps 757 mmHg 74%
    15:00 +11°C° 0 mm 1 mps 757 mmHg 77%
    16:00 +9°C° 0 mm 0 mps 757 mmHg 81%
    17:00 +10°C° 0 mm 1 mps 757 mmHg 82%
    18:00 +10°C° 0 mm 1 mps 758 mmHg 84%
    19:00 +9°C° 0 mm 1 mps 758 mmHg 85%
    20:00 +9°C° 0 mm 1 mps 758 mmHg 85%
    21:00 +9°C° 0 mm 1 mps 758 mmHg 86%
    22:00 +8°C° 0 mm 1 mps 758 mmHg 86%
    23:00 +7°C° 0 mm 2 mps 758 mmHg 86%

    25 November, Saturday

    Time Temperature Precipitation Wind Pressure Humidity
    00:00 +7°C° 0 mm 2 mps 758 mmHg 86%
    01:00 +6°C° 0 mm 2 mps 758 mmHg 86%
    02:00 +6°C° 0 mm 2 mps 758 mmHg 87%
    03:00 +6°C° 0 mm 2 mps 758 mmHg 87%
    04:00 +7°C° 0 mm 1 mps 758 mmHg 87%
    05:00 +5°C° 0 mm 2 mps 758 mmHg 88%
    06:00 +5°C° 0 mm 2 mps 758 mmHg 89%
    07:00 +5°C° 0 mm 2 mps 758 mmHg 89%
    08:00 +6°C° 0 mm 2 mps 758 mmHg 85%
    09:00 +7°C° 0 mm 3 mps 758 mmHg 81%
    10:00 +9°C° 0 mm 3 mps 758 mmHg 77%
    11:00 +9°C° 0 mm 3 mps 757 mmHg 74%
    12:00 +10°C° 0 mm 3 mps 757 mmHg 70%
    13:00 +11°C° 0 mm 3 mps 756 mmHg 67%
    14:00 +10°C° 0 mm 3 mps 756 mmHg 70%
    15:00 +10°C° 0 mm 3 mps 756 mmHg 73%
    16:00 +9°C° 0 mm 2 mps 756 mmHg 76%
    17:00 +8°C° 0 mm 3 mps 756 mmHg 77%
    18:00 +8°C° 0 mm 3 mps 756 mmHg 77%
    19:00 +7°C° 0 mm 3 mps 756 mmHg 78%
    20:00 +8°C° 0 mm 3 mps 756 mmHg 77%
    21:00 +8°C° 0 mm 3 mps 756 mmHg 76%
    22:00 +8°C° 0 mm 3 mps 756 mmHg 75%
    23:00 +8°C° 0 mm 3 mps 756 mmHg 76%
    Show more